Regional Weather Roundup
Issued by NWS

Home | Current Version | Previous Version | Text Only | Print | Product List | Glossary On
Versions: 1 2 3 4 5 6 7 8 9 10 11 12 13 14 15 16 17 18 19 20 21 22 23 24 25 26 27 28 29 30 31 32 33 34 35 36 37 38 39 40 41 42 43 44 45 46 47 48 49 50
127
ASUS43 KMPX 211910
RWRMN
WEATHER ROUNDUP FOR MINNESOTA
NATIONAL WEATHER SERVICE TWIN CITIES/CHANHASSEN MN
200 PM CDT THU MAY 21 2015


NOTE: "FAIR" INDICATES FEW OR NO CLOUDS BELOW 12,000 FEET WITH NO
SIGNIFICANT WEATHER AND/OR OBSTRUCTIONS TO VISIBILITY. N/A MEANS
CURRENT SKY AND/OR WEATHER CONDITIONS ARE NOT AVAILABLE.

MNZ060>063-068>070-212000-
   Twin Cities Metro

CITY           SKY/WX    TMP DP  RH WIND       PRES   REMARKS
TWIN CITIES    SUNNY     71  32  23 NW18      30.02S
ST PAUL        SUNNY     71  36  27 N13G23    30.02R
CRYSTAL        SUNNY     72  37  28 NW12G20   30.01S
BLAINE         SUNNY     72  36  26 N14G23    30.01S
LAKEVILLE      SUNNY     68  37  32 NW13G22   30.03R
EDEN PRAIRIE   SUNNY     70  32  24 NW15G25   30.02S
SOUTH ST PAUL  SUNNY     71  31  22 NW13G21   30.01S
LAKE ELMO      FAIR      70  39  32 NW9G20    30.02S
$$
MNZ001>005-007-008-013>017-022>024-027-028-212000-
   Northwest Minnesota

CITY           SKY/WX    TMP DP  RH WIND       PRES   REMARKS
BEMIDJI        SUNNY     62  31  31 N8G21     30.11S
HALLOCK        SUNNY     64  32  29 N9G17     30.14F
ROSEAU         SUNNY     64  36  34 N8G16     30.12F
WARROAD        SUNNY     57  36  44 E10       30.13F
THIEF RVR FALL SUNNY     64  30  27 NW12      30.14S
CROOKSTON      SUNNY     66  34  30 N10       30.14S
FOSSTON        SUNNY     64  32  29 N9G18     30.12F
DETROIT LAKES  SUNNY     64  32  29 NW14G20   30.12F
MOORHEAD       SUNNY     64  37  36 NW14      30.14S
PARK RAPIDS    SUNNY     66  27  23 N15G22    30.09S
MAHNOMEN       FAIR      64  32  30 NW10G17   30.12S
$$
MNZ006-009>011-018-025>026-212000-
   North Central Minnesota

CITY           SKY/WX    TMP DP  RH WIND       PRES   REMARKS
BAUDETTE       SUNNY     60  32  34 N15       30.12S
FLAG ISLAND    SUNNY     57  30  35 N12       30.11F
INTL FALLS     SUNNY     63  33  32 NW10G22   30.08S
WASKISH        SUNNY     61  36  39 NW9G18    30.11F
BIG FORK       SUNNY     64  27  24 NW10G20   30.08R
LONGVILLE      SUNNY     64  32  29 W14G20    30.08S
GRAND RAPIDS   SUNNY     63  30  29 N16G24    30.07R
CRANE LAKE     SUNNY     59  25  27 N9        30.07S
ORR            SUNNY     61  23  23 NW5G16    30.04S
COOK           SUNNY     63  30  29 NW14      30.05S
WALKER         FAIR      62  32  31 N12G18    30.09S
$$
MNZ012-019>021-037-212000-
   Northeast Minnesota

CITY           SKY/WX    TMP DP  RH WIND       PRES   REMARKS
DULUTH         SUNNY     66  31  27 N13G26    30.01S
ELY            SUNNY     61  25  25 NW12G21   30.02S
HIBBING        SUNNY     65  28  24 N14G28    30.04S
EVELETH        SUNNY     63  28  27 NW14G23   30.04S
DULUTH HARBOR  SUNNY     54  37  54 NE5       30.03F
TWO HARBORS    SUNNY     63  37  39 SE6       29.99F
SILVER BAY     SUNNY     61  30  31 SE6       29.99F
GRAND MARAIS     N/A     47  36  65 W5        30.02R
G MARAIS ARPRT SUNNY     59  25  27 NW15G25   30.00S
$$
MNZ029>031-032-039>041-046>048-054>057-064-212000-
   West Central Minnesota

CITY           SKY/WX    TMP DP  RH WIND       PRES   REMARKS
FERGUS FALLS   SUNNY     66  36  32 N10G23    30.12F
WHEATON        SUNNY     66  36  32 NW10G18   30.14F
MORRIS         SUNNY     70  34  26 NW16      30.10F
ALEXANDRIA     SUNNY     66  31  27 N14G23    30.11S
ELBOW LAKE     FAIR      65  36  33 NW14G20   30.11S
WADENA         SUNNY     66  34  30 N7G17     30.09R
GLENWOOD       SUNNY     68  34  28 NW15      30.10S
APPLETON       SUNNY     70  34  26 NW13G22   30.11F
BENSON         SUNNY     70  30  23 N13G20    30.10F
ORTONVILLE     SUNNY     70  27  19 NW14      30.12F
MADISON        SUNNY     70  28  21 NW18G29   30.12S
WILLMAR        FAIR      70  37  30 NW15      30.10S
$$
MNZ033>034-036-042>043-049>051-058-059-212000-
   Central Minnesota

CITY           SKY/WX    TMP DP  RH WIND       PRES   REMARKS
ST CLOUD       SUNNY     69  34  27 N14G21    30.05S
SAUK CENTRE    FAIR      66  33  29 N14G23    30.09S
PAYNESVILLE    SUNNY     65  35  33 NW12G22   30.08S
AITKIN         SUNNY     70  21  16 N10G20    30.04S
PINE RIVER     SUNNY     64  36  34 NW13G20   30.11S
BRAINERD       SUNNY     65  30  27 N13G24    30.08R
STAPLES        SUNNY     66  27  22 N10       30.08S
LONG PRAIRIE   FAIR      64  32  29 NW8G16    30.09S
LITTLE FALLS   SUNNY     68  28  22 NW9       30.06S
LITCHFIELD     SUNNY     70  37  30 N16       30.07S
BUFFALO        SUNNY     70  37  29 NW14      30.05S
MAPLE LAKE     SUNNY     71  41  34 NW13G18   30.06R
$$
MNZ037-044-045-052-053-212000-
   East Central Minnesota

CITY           SKY/WX    TMP DP  RH WIND       PRES   REMARKS
PRINCETON      SUNNY     72  37  28 NW13G21   30.03S
MORA           SUNNY     68  34  28 NW13G24   30.04S
CAMBRIDGE      SUNNY     72  46  40 NW15G21   30.01R
RUSH CITY      SUNNY     70  35  27 NW7       30.01S
MOOSE LAKE     SUNNY     68  32  26 N9G17     30.01R
HINCKLEY       FAIR      68  37  32 NW10G16   30.01S
CLOQUET        SUNNY     66  25  20 N6G23     30.02S
MCGREGOR       SUNNY     64  32  29 NW10G18   30.05R
$$
MNZ071>073-080-081-089-090-097-098-212000-
   Southwest Minnesota

CITY           SKY/WX    TMP DP  RH WIND       PRES   REMARKS
MONTEVIDEO     SUNNY     70  36  28 N14G22    30.11F
GRANITE FALLS  SUNNY     70  31  23 NW18G25   30.13R
CANBY          SUNNY     69  35  28 NW16      30.14S
MARSHALL       SUNNY     70  34  26 NW24      30.11S
REDWOOD FALLS  SUNNY     70  34  26 NW16G24   30.09S
OLIVIA         SUNNY     68  32  26 N17G25    30.08S
PIPESTONE      SUNNY     70  34  26 NW17G26   30.14S
WINDOM         SUNNY     72  34  25 NW21G30   30.10F
WORTHINGTON    MOSUNNY   72  37  28 NW21G28   30.12S
JACKSON        SUNNY     72  30  21 NW22G29   30.10S
TRACY          SUNNY     72  33  24 NW17G26   30.11F
SLAYTON        SUNNY     70  36  29 NW17G26   30.13S
$$
MNZ065>067-074>077-082>085-091>093-212000-
   South Central Minnesota

CITY           SKY/WX    TMP DP  RH WIND       PRES   REMARKS
MANKATO        SUNNY     70  30  23 NW20G29   30.05F
NEW ULM        SUNNY     70  30  23 NW23      30.05F
ST JAMES       SUNNY     73  16  11 NW29G36   30.08S
FAIRMONT       SUNNY     72  34  25 NW21G29   30.07F
GLENCOE        SUNNY     70  40  32 NW18      30.05S
FARIBAULT      SUNNY     70  34  26 W17       30.04S
OWATONNA       SUNNY     70  30  23 NW16      30.04S
WASECA         SUNNY     72  32  23 W20G28    30.06S
ALBERT LEA     SUNNY     72  30  21 NW16G28   30.04F
$$
MNZ078>079-086>088-094>096-212000-
   Southeast Minnesota

CITY           SKY/WX    TMP DP  RH WIND       PRES   REMARKS
ROCHESTER      SUNNY     72  35  25 NW21G26   30.02F
RED WING       SUNNY     72  36  26 NW12      29.99F
STANTON        SUNNY     69  36  29 W14G22    30.01S
DODGE CENTER   SUNNY     70  34  26 NW14G21   30.03S
WINONA         MOSUNNY   73  41  31 NW16G22   29.99R
AUSTIN         SUNNY     70  36  28 W16G31    30.03F
PRESTON        SUNNY     69  38  32 W17G23    30.02F
$$
ABBREVIATIONS USED IN REMARKS
   TC - TEMPERATURES IN CELSIUS
  WCI - WIND CHILL INDEX
   HX - HEAT INDEX
  VSB - VISIBILITY
$$



USA.gov is the U.S. government's official web portal to all federal, state and local government web resources and services.